Flag for Norfolk Island Weather past 2 weeks in Kingston, Norfolk Island

Now
61 °F

Partly cloudy.


Feels Like: 61 °F
Forecast: 62 / 66 °F
Wind: 15 mph from Southwest

Location: Norfolk Island Airport

Current Time: Aug 21, 2014 at 3:18:41 AM

Latest Report: Aug 21, 2014 at 2:30 AM


Visibility: N/A

Pressure: 29.95 "Hg

Humidity: 77%

Dew point: 54 °F

Location of KingstonLocation

Historic Weather in Kingston — Graph

°F

Kingston temperature yesterday

Maximum temperature yesterday: 68 °F (at 12:30 PM)
Minimum temperature yesterday: 61 °F (at 11:00 PM)
Average temperature yesterday: 64 °F

Past Weeks' High & Low Weather Summary

 TemperatureHumidityPressure
High68 °F (Aug 19, 11:00 AM)100% (Aug 19, 12:30 AM)30.36 "Hg (Aug 19, 12:30 AM)
Low52 °F (Aug 6, 10:30 PM)45% (Aug 7, 11:30 AM)29.80 "Hg (Aug 19, 3:30 AM)
Average60 °F70%30.16 "Hg
* Reported Aug 6 1:30 AM — Aug 21 2:00 AM, Kingston, Weather by CustomWeather, © 2014

Note: Actual official high and low records may vary slightly from our data, if they occured in-between our weather recording intervals... More about our weather records

Advertising

Kingston weather history for previous 24 hours

 ConditionsComfort  
Time TempWeatherWind HumidityBarometerVisibility
2:00 AM
Aug 21
61 °FPassing clouds.15 mph72%29.98 "HgN/A
1:30 AM61 °FPassing clouds.13 mph77%29.95 "HgN/A
1:00 AM61 °FPassing clouds.15 mph77%29.98 "HgN/A
12:30 AM61 °FPassing clouds.15 mph77%29.95 "HgN/A
12:00 AM61 °FPartly cloudy.13 mph88%29.95 "HgN/A
11:30 PM
Aug 20
61 °FPartly cloudy.10 mph94%29.95 "HgN/A
11:00 PM61 °FSprinkles. Passing clouds.15 mph88%29.95 "Hg6 mi
10:30 PM63 °FSprinkles. Passing clouds.14 mph77%29.95 "HgN/A
10:00 PM63 °FPartly cloudy.14 mph77%29.95 "HgN/A
9:30 PM63 °FPassing clouds.14 mph73%29.95 "HgN/A
9:00 PM63 °FPassing clouds.15 mph73%29.92 "HgN/A
8:30 PM63 °FPassing clouds.14 mph73%29.92 "HgN/A
8:00 PM63 °FPassing clouds.14 mph83%29.92 "HgN/A
7:30 PM63 °FPassing clouds.15 mph83%29.89 "HgN/A
7:00 PM63 °FPassing clouds.14 mph83%29.89 "HgN/A
6:30 PM63 °FPassing clouds.17 mph77%29.89 "HgN/A
6:00 PM63 °FPassing clouds.17 mph83%29.86 "HgN/A
5:30 PM64 °FPassing clouds.18 mph73%29.86 "HgN/A
5:00 PM64 °FScattered showers. Scattered clouds.17 mph78%29.83 "HgN/A
4:30 PM64 °FSprinkles. Scattered clouds.17 mph78%29.83 "HgN/A
4:00 PM66 °FSprinkles. Scattered clouds.18 mph73%29.83 "HgN/A
3:30 PM66 °FScattered clouds.18 mph73%29.83 "HgN/A
3:00 PM66 °FPassing clouds.22 mph73%29.83 "HgN/A
2:30 PM66 °FPassing clouds.20 mph73%29.83 "HgN/A
2:00 PM66 °FPassing clouds.22 mph73%29.83 "HgN/A
1:30 PM66 °FSunny.21 mph73%29.83 "HgN/A
1:00 PM68 °FPassing clouds.18 mph73%29.83 "HgN/A
12:30 PM68 °FPassing clouds.18 mph69%29.83 "HgN/A
11:30 AM66 °FPassing clouds.22 mph73%29.86 "HgN/A
11:00 AM66 °FPassing clouds.22 mph73%29.86 "HgN/A
10:30 AM64 °FScattered clouds.22 mph78%29.86 "HgN/A
9:30 AM66 °FScattered clouds.25 mph73%29.83 "HgN/A
9:00 AM64 °FScattered clouds.20 mph83%29.83 "Hg6 mi
8:30 AM63 °FScattered showers. Partly sunny.17 mph83%29.83 "Hg6 mi
8:00 AM63 °FSprinkles. Broken clouds.21 mph77%29.83 "Hg6 mi
7:30 AM64 °FBroken clouds.21 mph83%29.83 "HgN/A
7:00 AM64 °FSunny.17 mph78%29.83 "HgN/A
6:30 AM63 °FScattered clouds.21 mph83%29.80 "HgN/A
5:30 AM64 °FPassing clouds.17 mph78%29.80 "HgN/A
5:23 AM64 °FPassing clouds.17 mph83%29.80 "HgN/A
4:30 AM64 °FPartly cloudy.18 mph83%29.80 "Hg6 mi
4:00 AM64 °FPassing clouds.17 mph83%29.80 "HgN/A
3:30 AM64 °FPartly cloudy.16 mph83%29.80 "Hg6 mi
3:00 AM64 °FPassing clouds.16 mph83%29.80 "Hg6 mi
Weather by CustomWeather, © 2014

See weather overviewHow to use our weather pages